Location: Huntsville
(41.2590°N, 111.7678°W)
Time: 21:00:07
(UTC+00:00)

Explorer 7 - Pass Details

Date: 20 June 2021
Orbit: 484 x 676 km, 50.3° (Epoch: 30 July)

Event Time Altitude Azimuth Distance (km) Brightness Sun altitude
Rises 07:56:44 0° 297° (WNW) 2,999 10.8 -25.0°
Reaches altitude 10° 07:59:24 10° 309° (NW) 2,065 10.1 -24.9°
Maximum altitude 08:03:33 29° 9° (N) 1,170 9.1 -24.8°
Drops below altitude 10° 08:07:32 10° 70° (ENE) 1,970 10.0 -24.7°
Sets 08:10:01 0° 82° (E) 2,838 10.7 -24.6°
